Location: Deep Valley
(39.7548°N, 80.4695°W)
Time: 09:12:21
(UTC+00:00)

Tianhe-1 - Visible Passes

Search period start: 25 June 2021 00:00
Search period end: 05 July 2021 00:00
Orbit: 375 x 385 km, 41.5° (Epoch: 25 June)

Date Brightness Start Highest point End Pass type
(mag) Time Alt. Az. Time Alt. Az. Time Alt. Az.
25 Jun 2.7 07:10:20 30° E 07:10:20 30° E 07:12:03 10° ENE visible
25 Jun 1.5 08:42:38 10° W 08:45:45 60° N 08:48:52 10° E visible
26 Jun 1.4 07:44:03 51° NW 07:44:35 63° N 07:47:42 10° ENE visible
26 Jun 1.1 09:18:18 10° WNW 09:21:27 81° NNE 09:24:37 10° E visible
27 Jun 3.6 06:45:42 17° ENE 06:45:42 17° ENE 06:46:33 10° ENE visible
27 Jun 1.4 08:17:49 15° WNW 08:20:18 65° N 08:23:26 10° E visible
28 Jun 1.9 07:19:37 49° NE 07:19:37 49° NE 07:22:11 10° E visible
28 Jun 0.9 08:52:45 10° WNW 08:55:53 74° SSW 08:59:01 10° ESE visible
29 Jun 1.1 07:53:47 42° WNW 07:54:42 79° N 07:57:51 10° E visible
30 Jun 3.9 06:56:11 13° E 06:56:11 13° E 06:56:35 10° E visible
30 Jun 1.2 08:28:22 21° W 08:30:11 48° SSW 08:33:13 10° SE visible
01 Jul 3.4 07:31:24 16° ESE 07:31:24 16° ESE 07:32:07 10° ESE visible
01 Jul 2.6 09:03:38 12° WSW 09:05:24 18° SSW 09:07:37 10° SSE visible
03 Jul 1.9 02:10:18 10° SSW 02:13:00 27° SSE 02:13:35 26° SE visible
04 Jul 0.8 02:45:10 10° WSW 02:48:15 72° SSE 02:48:39 60° ESE visible
